Location: Joplin, MO
(37.0842°N, 94.5133°W)
Time: 20:30:12
(UTC+02:00)

Courier 1B Rocket - Pass Details

Date: 07 April 2023
Orbit: 920 x 1202 km, 28.2° (Epoch: 08 June)

Event Time Altitude Azimuth Distance (km) Brightness Sun altitude
Rises 00:09:25 0° 246° (WSW) 4,085 9.4 29.9°
Reaches altitude 10° 00:12:26 10° 239° (WSW) 3,127 9.1 29.3°
Maximum altitude 00:19:38 41° 173° (S) 1,652 6.6 27.9°
Drops below altitude 10° 00:26:41 10° 106° (ESE) 3,055 7.2 26.5°
Sets 00:29:36 0° 99° (E) 3,983 7.7 26.0°
